Location: *
(33.3200°N, 8.3381°W)
Time: 22:31:18
(UTC+00:00)

Aureole 3 - Pass Details

Date: 09 April 2020
Orbit: 381 x 1235 km, 82.5° (Epoch: 02 June)

Event Time Altitude Azimuth Distance (km) Brightness Sun altitude
Rises 19:24:43 0° 190° (S) 2,825 6.9 -5.9°
Reaches altitude 10° 19:26:41 10° 192° (SSW) 2,036 6.2 -6.3°
Maximum altitude 19:31:14 74° 278° (W) 798 4.3 -7.2°
Drops below altitude 10° 19:37:08 10° 3° (N) 2,618 6.9 -8.4°
Sets 19:39:57 0° 5° (N) 3,703 7.7 -9.0°
